Theta_e
311 310 309 309 308 307 307 307 308 309 310 311 312 313 313 314 313 312 322 332 325 314 314 317 317 311 313 314 310 313 313 314 309 305 305 304 303 302 303 304 301 300 299 297 298 294 292 310 307 299 302 305 305 303
310 310 308 308 307 307 307 307 308 309 309 310 312 313 313 314 313 314 322 326 329 318 315 320 319 319 318 319 315 317 315 313 313 306 309 308 301 302 301 297 308 299 304 298 299 298 308 308 307 308 307 304 303 302
311 309 308 307 307 307 307 307 308 309 309 310 311 312 313 313 313 312 319 324 326 317 314 313 312 318 320 320 326 317 314 316 314 316 308 309 302 305 298 300 304 308 309 302 301 307 307 309 309 309 307 304 304 305
310 309 308 307 307 307 306 307 308 309 309 310 311 312 313 313 313 313 320 322 325 322 310 311 318 314 320 320 322 323 321 323 320 318 313 309 304 309 303 305 304 308 308 304 302 308 309 308 308 308 308 307 305 305
310 309 308 307 307 306 306 307 308 308 309 310 311 312 312 312 311 313 322 320 320 319 309 309 315 316 317 318 319 319 320 319 316 311 310 307 309 307 309 306 304 309 307 302 300 307 305 305 307 311 307 304 305 305
309 308 307 306 307 306 306 307 308 308 309 310 311 312 311 311 310 320 318 319 314 321 318 304 313 316 317 318 317 315 315 317 315 312 311 311 315 312 305 301 310 311 313 313 307 310 310 310 313 311 307 305 306 306
309 308 307 306 306 306 307 307 308 309 309 310 310 310 311 310 314 313 310 313 310 318 319 307 306 316 320 318 315 312 315 313 313 313 309 311 312 310 304 299 307 310 313 312 315 314 309 312 308 310 308 306 308 307
308 307 306 306 306 306 307 307 308 308 309 309 309 310 310 310 311 315 319 312 313 321 320 307 306 309 319 312 308 315 308 310 310 309 311 310 310 308 300 306 310 311 312 311 312 312 314 313 314 311 310 309 308 306
307 306 305 306 306 307 307 307 308 308 308 309 310 310 315 317 315 315 316 316 322 321 311 312 306 301 314 310 310 311 315 302 311 305 308 311 305 299 304 306 308 310 309 309 311 311 310 309 310 311 311 308 306 308
306 306 304 306 306 306 307 307 308 308 308 310 313 316 309 311 316 318 321 317 318 317 317 309 311 304 312 311 309 310 310 306 303 306 312 305 302 309 311 311 311 311 312 311 308 306 308 308 309 309 310 314 312 308
305 305 304 306 306 307 307 308 307 308 314 319 315 311 316 316 317 316 307 307 307 305 310 310 309 307 312 305 307 308 305 306 302 304 305 302 300 307 311 312 313 312 311 311 311 311 310 310 310 310 311 314 315 313
305 305 304 306 306 307 307 307 307 313 313 308 306 313 319 315 307 306 303 306 307 304 308 306 305 308 310 311 308 308 304 305 302 310 304 298 304 309 311 310 311 311 310 309 312 310 312 313 312 311 311 313 314 314
304 305 305 306 306 307 307 307 308 308 309 317 314 313 306 307 297 301 300 303 304 308 309 310 307 308 313 311 308 305 302 302 309 303 298 301 306 308 309 309 309 310 310 310 309 310 311 313 314 313 311 314 314 312
304 305 305 306 306 307 307 307 308 309 315 313 306 292 303 303 304 304 304 305 310 310 309 309 308 306 308 305 304 302 304 303 298 296 297 304 306 308 309 310 308 308 309 308 308 309 309 311 312 313 312 313 314 311
304 304 304 306 306 306 307 307 308 316 317 309 309 294 303 308 308 309 309 308 309 311 310 308 309 307 304 303 303 301 299 298 299 297 303 307 309 309 308 308 307 307 308 308 307 307 308 310 310 310 311 312 312 312
303 301 306 305 305 306 306 308 318 321 313 311 312 306 308 307 305 306 306 306 310 309 310 311 305 301 301 300 301 300 298 296 299 303 306 309 308 308 307 309 310 309 309 309 308 309 308 308 308 308 311 310 310 310
297 307 303 305 305 306 307 312 317 309 308 309 309 311 309 307 305 305 306 306 310 308 303 305 301 299 303 299 299 302 298 301 304 307 310 310 308 307 307 308 308 310 308 308 309 310 308 308 308 307 306 306 308 310
307 307 307 306 306 312 318 315 310 308 305 310 306 307 308 310 307 307 307 308 307 305 305 301 304 301 298 297 297 302 304 307 309 309 309 310 310 308 309 307 308 309 308 307 306 310 310 307 305 305 305 306 307 306
304 306 306 306 306 308 308 308 312 304 305 309 308 309 308 307 309 310 310 311 311 309 305 303 300 299 299 303 302 305 306 305 305 308 307 310 310 310 309 308 309 307 307 306 307 307 307 308 307 306 305 305 303 305
305 306 306 306 308 310 305 304 313 307 304 305 308 308 309 308 309 309 309 309 307 306 302 301 301 303 303 305 307 307 307 308 306 303 305 308 309 311 309 308 306 307 306 305 305 300 303 305 306 307 307 304 303 303
303 308 308 310 314 310 308 307 306 306 306 306 307 308 307 307 307 307 306 308 305 303 301 305 305 308 309 309 309 309 307 308 306 306 304 303 307 307 307 309 307 307 303 303 304 303 302 305 306 306 306 305 305 306
310 306 311 312 306 307 307 310 307 309 308 307 306 307 305 304 305 307 307 304 304 304 306 307 308 309 308 309 310 310 311 311 311 308 303 304 305 305 305 307 304 304 304 303 303 304 305 305 306 305 305 305 304 306
306 306 309 305 300 295 296 310 305 305 300 303 305 301 302 303 307 309 303 305 306 309 309 310 310 311 309 311 312 310 311 310 308 307 307 306 306 306 306 305 305 304 303 304 306 305 305 300 302 302 303 303 303 303
305 306 301 299 299 293 302 300 304 301 303 300 299 297 301 305 308 304 300 304 307 309 309 310 309 308 310 309 307 308 309 310 308 307 308 305 304 304 304 304 305 305 305 307 306 306 306 305 300 303 303 302 300 300
295 295 296 287 301 297 296 297 297 297 296 298 297 298 301 305 300 299 299 304 306 307 308 309 308 307 306 307 308 309 310 308 306 304 305 305 304 303 303 303 303 304 302 302 302 303 303 304 304 303 303 303 301 300
287 296 294 296 296 296 296 294 295 296 297 296 298 303 304 301 296 295 301 305 306 307 308 307 306 305 305 306 306 306 307 308 307 304 304 304 303 301 300 299 298 299 299 299 299 299 299 299 298 298 299 300 294 300
289 294 298 303 302 300 298 300 301 299 296 295 300 299 298 293 293 301 307 309 308 311 311 311 310 308 307 307 308 309 309 309 308 306 306 305 304 304 300 297 295 296 298 299 297 296 295 295 295 295 295 296 296 297
298 298 294 298 298 301 297 297 296 295 299 303 301 295 295 296 298 307 309 313 312 313 312 312 312 312 311 310 308 307 308 308 308 307 306 305 305 304 301 299 299 291 297 298 296 297 296 296 295 295 294 294 294 297
297 300 300 296 298 298 298 298 298 302 306 305 300 299 301 306 309 308 311 312 313 313 310 309 309 311 310 310 310 307 307 306 303 300 299 298 298 299 300 299 299 299 299 298 290 291 293 294 294 294 295 295 295 296
298 302 298 298 296 295 301 305 304 308 309 309 308 308 307 308 310 314 312 312 310 310 311 311 309 308 306 305 304 305 306 306 304 301 298 297 297 299 299 299 298 298 297 297 296 295 290 294 294 296 295 294 294 295
302 301 299 299 297 301 304 308 309 310 309 308 309 308 306 308 309 310 310 312 311 311 310 307 307 308 306 304 304 302 301 304 304 304 302 300 300 300 299 298 298 297 296 296 295 294 293 294 294 294 293 293 294 293
300 298 298 296 298 304 307 306 306 305 305 304 303 305 304 303 301 307 311 312 309 307 301 302 304 305 307 306 306 303 292 303 303 302 303 300 300 299 298 297 296 296 296 295 294 294 294 294 294 293 293 293 294 295
300 300 300 299 300 300 303 302 301 300 301 300 302 303 302 302 300 307 315 314 312 308 308 307 305 307 307 306 306 304 296 304 301 290 288 289 289 292 294 297 297 296 296 295 294 295 294 294 294 293 293 293 294 295
Wind_Speed
5 5 6 9 10 12 14 16 17 18 20 20 21 22 22 22 21 10 5 6 4 7 8 10 8 11 5 5 4 6 4 8 6 8 5 5 6 8 6 5 3 2 2 3 6 6 3 8 7 7 2 6 8 8
5 4 5 8 10 12 13 15 17 18 19 19 21 22 23 23 22 18 4 9 4 6 5 5 7 9 7 5 1 6 4 6 2 4 5 6 3 3 5 3 2 4 3 3 5 3 5 4 8 6 8 7 6 6
6 4 4 7 9 11 13 15 16 18 19 18 19 20 21 22 20 12 3 6 4 3 5 5 7 7 8 4 2 3 3 2 2 2 1 4 6 3 2 3 1 6 9 5 6 6 7 7 6 8 7 6 7 7
6 4 3 7 9 11 13 15 16 17 18 18 18 18 19 20 19 12 4 6 2 3 4 3 7 7 6 6 5 4 2 4 2 1 2 4 4 3 2 3 7 3 4 4 4 6 7 6 6 6 6 8 8 8
6 4 3 6 8 11 12 14 15 17 18 18 18 18 18 19 19 7 3 4 4 2 2 3 4 3 4 5 4 3 1 1 1 3 3 5 5 4 2 3 8 4 4 4 1 3 5 2 4 6 8 8 7 7
6 4 3 6 8 10 12 14 16 17 18 19 18 17 17 19 20 1 2 1 8 4 2 3 2 1 1 3 5 6 4 2 1 3 1 4 5 10 4 3 7 9 6 3 1 3 4 5 7 8 9 8 5 7
6 4 3 5 8 10 12 15 17 17 18 18 18 16 15 12 5 3 1 4 9 2 1 3 2 1 4 2 1 2 3 2 2 1 4 5 4 7 4 4 5 8 6 9 10 6 1 5 3 8 10 7 4 5
7 4 2 6 9 11 13 15 17 18 18 18 18 17 16 12 3 1 2 7 5 3 2 1 1 1 4 2 1 1 0 3 5 1 5 4 4 5 4 4 6 8 8 9 9 13 6 5 5 6 8 7 8 8
6 3 3 7 10 12 14 16 19 19 19 16 17 17 4 1 3 2 5 9 3 1 2 3 2 1 2 2 3 2 1 2 2 3 4 5 3 5 3 5 6 7 7 8 8 9 9 9 10 3 7 9 8 7
6 3 3 6 10 12 14 17 20 22 21 14 2 3 2 2 4 8 2 2 2 2 2 4 6 3 4 4 1 1 1 3 2 0 5 5 3 3 5 5 6 7 7 8 7 8 8 9 10 10 9 6 6 8
5 1 4 7 10 12 15 17 21 23 10 2 4 3 4 1 2 2 1 1 2 3 4 2 4 4 4 3 3 1 3 1 2 2 6 3 3 4 7 8 8 9 11 11 10 10 10 10 12 12 14 14 15 6
5 1 4 7 10 12 14 15 18 8 3 2 4 6 4 3 3 2 1 2 5 4 3 3 2 1 3 1 2 4 3 2 3 2 6 3 2 5 7 9 9 8 10 10 12 13 14 14 13 12 12 10 14 11
4 1 4 7 10 12 13 14 12 10 12 3 3 2 5 1 3 3 3 3 4 3 4 4 1 2 2 1 3 2 2 2 1 5 4 3 3 7 7 7 7 7 7 9 13 12 12 12 12 12 11 12 14 11
3 2 5 9 11 12 14 15 14 8 3 3 1 5 2 1 5 5 7 5 3 4 5 4 2 1 2 4 2 3 3 2 2 5 3 1 4 5 6 9 9 11 10 10 9 11 11 13 12 11 9 10 11 8
3 5 8 9 10 13 14 16 15 3 3 3 1 2 5 4 5 5 5 6 6 6 4 5 1 2 1 2 2 4 3 5 5 3 3 2 6 7 6 6 6 6 6 3 2 5 8 9 10 11 12 11 7 9
3 7 3 10 12 13 13 13 4 3 2 3 3 2 3 5 7 8 7 5 5 6 6 3 3 3 3 3 3 4 5 5 2 3 4 5 6 3 1 4 6 6 6 6 1 0 3 6 7 9 10 12 9 7
1 2 7 10 12 16 9 1 3 2 3 3 3 3 7 7 6 5 5 5 6 5 4 2 4 3 4 3 5 5 3 2 4 3 3 4 4 2 2 4 6 6 6 6 5 6 4 3 5 6 9 10 12 11
0 1 6 10 9 5 3 1 4 3 1 3 4 6 8 6 5 4 3 4 5 5 5 3 3 3 3 6 4 4 4 5 4 4 4 4 2 1 3 3 6 4 4 6 6 5 2 4 3 4 5 7 8 7
2 4 9 7 3 2 2 2 2 3 4 3 4 5 4 3 1 1 2 1 1 1 2 4 2 4 4 3 4 4 4 4 2 4 3 4 3 2 0 5 1 3 3 5 5 2 4 4 4 2 2 3 5 6
9 10 10 8 2 3 1 1 1 3 2 3 2 2 3 3 2 1 1 3 3 3 1 1 4 3 4 2 4 4 4 4 4 4 3 1 3 3 3 2 3 7 5 2 4 4 4 1 1 0 1 2 3 4
4 4 7 3 3 3 3 2 2 3 1 0 3 2 3 2 1 2 2 3 2 1 5 6 5 4 5 3 4 4 3 3 2 2 2 4 5 5 5 4 3 3 3 4 4 5 8 3 3 2 1 2 2 3
2 3 3 1 2 4 0 2 1 1 2 2 1 2 1 0 1 3 2 2 0 4 3 4 4 4 3 4 2 3 4 5 5 5 4 2 3 5 6 5 2 5 1 1 1 3 3 8 1 0 2 3 4 3
5 2 3 3 2 4 2 3 2 2 2 2 1 1 2 2 3 1 3 1 3 3 3 4 3 2 2 1 4 6 5 5 4 7 6 4 3 3 4 6 7 7 7 6 4 5 6 9 5 3 3 4 4 4
0 4 4 1 3 1 1 2 1 1 1 2 2 1 3 2 2 2 2 2 3 4 5 1 1 2 4 5 3 2 3 2 3 3 4 6 7 7 7 6 6 7 8 7 7 7 7 7 9 8 9 7 3 5
2 5 1 4 3 1 3 3 3 2 3 3 1 1 2 1 2 2 1 1 5 4 4 4 4 3 1 3 3 2 2 1 2 4 4 5 6 7 5 4 4 7 9 9 9 9 8 8 7 8 9 8 9 7
3 3 3 3 3 3 2 2 3 3 2 2 2 0 2 1 2 2 1 4 5 4 3 4 4 4 4 5 3 3 3 3 2 2 3 4 5 7 6 7 6 6 9 8 10 11 12 12 12 15 14 13 11 13
1 3 3 3 2 1 3 3 2 2 3 3 1 3 2 2 3 3 3 4 4 3 3 4 4 2 2 3 4 3 2 3 4 3 3 5 5 6 7 6 7 5 8 9 10 10 11 11 12 12 12 13 13 13
3 1 4 4 4 3 3 2 2 2 2 1 2 2 1 1 1 2 2 3 1 3 2 3 3 2 2 1 3 5 3 4 3 3 3 3 4 4 6 5 5 9 5 5 6 9 9 10 12 13 13 13 13 12
4 5 4 6 5 2 3 3 3 2 2 2 0 2 2 3 3 2 2 3 3 1 0 3 1 2 3 5 4 2 4 3 4 6 7 5 5 4 4 3 3 5 5 6 8 7 9 10 11 12 14 10 11 11
7 6 5 6 8 5 1 2 3 3 2 0 2 2 2 2 0 3 2 1 2 2 3 2 1 4 4 3 3 4 3 5 5 4 3 4 5 4 4 4 5 6 6 8 7 10 9 9 11 10 11 9 10 10
3 5 2 4 3 2 1 3 2 1 3 3 2 1 1 2 4 5 5 4 3 2 3 4 5 3 2 3 2 3 3 4 5 5 4 2 3 4 6 5 5 6 7 8 8 9 11 10 10 12 12 13 14 12
4 6 3 4 1 6 3 1 2 2 3 4 5 6 7 8 10 7 6 5 5 4 4 2 1 1 2 3 3 4 4 2 2 2 1 0 2 4 5 5 4 5 7 8 7 8 10 12 10 11 13 15 15 15
6 5 6 5 3 6 4 5 4 5 6 8 10 10 9 10 12 4 3 4 4 2 1 3 2 3 6 3 1 1 4 3 4 2 7 6 4 4 4 5 5 6 7 6 7 8 10 12 11 12 14 15 17 15
Wind_Direction
126 89 51 40 24 11 6 2 357 353 353 352 352 350 351 354 356 355 282 359 53 88 48 36 30 41 7 10 34 303 29 358 16 21 26 28 55 50 344 321 187 71 70 309 31 66 21 344 26 71 205 48 67 57
137 99 51 35 24 11 3 359 353 350 349 349 351 347 347 350 355 350 352 345 324 82 153 91 52 34 63 89 341 358 97 35 27 22 12 79 51 104 244 74 358 3 79 83 84 159 160 99 107 77 81 80 70 79
147 112 58 32 20 8 360 354 350 348 345 345 346 343 342 345 353 1 308 335 355 98 81 51 42 30 14 37 62 93 36 2 41 176 259 97 80 115 285 289 214 53 42 48 73 14 73 94 91 95 91 100 80 67
148 122 64 31 17 4 355 349 344 343 339 341 339 338 340 339 340 349 336 350 14 327 111 13 55 39 11 356 69 49 56 3 203 163 81 98 105 30 261 1 59 36 47 68 71 43 87 67 86 116 117 88 99 85
148 130 67 28 14 359 348 341 338 336 335 334 336 335 336 333 331 314 266 37 16 43 85 141 74 53 355 359 38 95 352 9 312 29 53 98 86 3 226 35 35 28 50 46 127 80 113 71 111 93 92 87 74 117
151 123 61 20 7 351 340 336 332 331 332 331 331 332 332 334 333 309 164 95 31 357 351 71 255 60 133 90 32 4 337 327 101 115 192 82 101 175 106 78 5 7 10 42 112 130 165 179 87 76 95 83 67 106
144 113 46 5 356 343 335 331 328 328 328 326 325 324 324 333 334 49 191 278 337 285 303 98 118 312 344 212 228 329 335 353 71 113 67 91 57 79 56 65 6 3 13 36 3 289 30 44 138 129 119 119 132 130
136 122 26 1 349 338 332 329 326 324 324 320 318 314 315 305 247 346 229 256 319 302 292 109 98 100 168 219 58 293 101 32 349 35 39 68 44 64 67 348 48 17 10 14 8 27 72 334 357 131 143 161 186 192
140 138 23 360 339 334 331 329 325 322 317 314 308 305 309 37 358 311 258 280 222 104 323 1 110 138 292 203 175 328 141 70 292 83 58 73 54 52 109 53 44 13 20 1 9 6 9 8 354 340 184 198 195 213
141 102 2 350 338 332 331 332 325 320 312 303 315 263 53 303 313 318 339 354 299 237 249 45 1 36 10 348 261 61 235 151 143 96 89 84 62 138 119 84 62 20 12 10 8 354 3 1 351 336 337 302 240 212
137 116 356 347 335 332 338 334 330 327 312 344 332 21 299 49 337 251 316 281 249 81 5 346 52 354 4 21 314 54 296 346 105 218 109 98 80 356 36 46 42 27 21 14 18 19 13 5 354 344 342 347 343 261
142 74 351 336 330 337 335 335 343 350 38 346 290 269 279 270 19 317 111 223 22 61 14 19 352 355 316 325 303 354 313 339 77 179 84 82 89 41 35 43 39 40 30 359 27 10 2 357 347 337 335 334 327 298
146 64 335 330 334 332 328 326 331 296 286 178 226 252 53 271 31 252 143 53 52 50 351 337 31 343 328 321 302 7 290 14 303 56 66 58 23 39 49 22 357 21 24 32 22 11 356 342 338 338 346 347 340 338
154 266 301 314 324 325 321 322 328 337 280 260 126 346 190 79 42 42 62 59 20 14 347 321 356 29 292 17 323 303 27 332 8 61 75 90 46 39 49 37 26 4 353 46 20 3 358 356 347 345 348 340 344 335
216 274 299 300 323 321 319 321 316 269 277 336 296 11 49 54 65 68 65 43 5 341 344 332 330 343 36 303 37 37 284 72 38 69 94 81 67 47 32 22 13 345 348 354 45 18 349 359 351 344 342 330 336 337
265 301 285 322 322 315 319 320 278 242 263 279 261 101 120 98 55 42 41 35 354 321 301 306 4 59 345 326 283 24 46 37 51 98 133 100 101 110 17 342 329 318 318 287 360 350 1 7 352 338 346 354 340 341
15 3 326 330 323 306 297 294 279 331 317 294 29 32 78 75 75 54 35 357 316 349 13 329 35 353 280 294 45 33 49 93 151 103 114 131 146 167 37 326 310 312 346 348 337 315 79 23 16 1 355 348 346 356
218 64 345 345 341 320 257 261 305 275 51 7 61 52 50 35 72 57 65 357 12 357 358 23 306 296 12 44 51 40 48 61 87 135 128 154 188 256 300 319 324 38 357 326 330 336 347 78 37 347 341 337 328 339
344 332 332 333 2 290 331 46 6 2 32 17 34 53 68 88 113 253 84 108 341 283 340 341 295 36 54 48 42 47 52 22 6 118 140 164 225 265 354 298 209 331 321 327 331 324 318 142 165 229 268 322 332 331
316 307 297 298 69 271 103 15 208 272 83 8 3 27 63 53 12 350 279 59 347 314 345 326 44 89 98 58 55 56 35 26 16 4 2 323 190 241 235 276 326 299 273 315 295 296 313 298 81 146 358 263 309 333
306 355 327 300 211 1 353 323 42 2 346 25 55 335 83 226 253 56 36 360 272 295 32 63 91 79 71 58 68 82 37 6 319 322 344 331 329 325 286 271 251 319 4 314 307 330 328 258 222 158 72 301 306 297
24 349 290 186 3 0 269 338 11 73 281 66 168 257 221 150 70 50 312 255 242 61 56 84 81 98 90 66 47 41 10 8 14 345 352 323 347 338 7 344 34 308 35 278 353 308 332 282 240 256 189 247 224 269
312 220 235 22 64 53 274 278 236 308 169 148 324 214 160 191 94 256 253 327 99 96 92 93 66 30 72 225 94 44 353 351 340 10 359 336 327 6 5 343 335 325 341 358 346 332 355 346 350 357 16 356 342 321
195 339 346 335 132 15 279 207 341 223 290 210 234 179 106 50 72 252 270 83 80 86 89 343 271 128 70 53 44 46 322 319 11 358 341 355 1 354 346 328 348 2 13 4 358 349 350 354 345 347 340 329 345 329
36 340 90 323 286 221 204 166 221 201 241 202 197 209 111 111 255 248 127 3 92 74 45 28 12 37 61 157 119 104 138 230 337 352 356 15 340 322 328 343 358 58 10 1 351 347 341 337 335 315 310 319 318 310
64 196 170 210 163 248 173 206 197 237 265 167 227 269 83 155 281 266 75 73 76 62 38 27 19 11 15 19 28 26 18 13 347 331 18 347 339 334 8 23 5 12 1 343 330 338 345 347 351 348 341 338 339 335
238 166 201 268 273 301 286 248 215 216 235 211 178 173 197 220 244 91 81 41 78 53 23 39 17 23 354 336 350 331 339 312 63 60 13 13 352 58 51 36 12 360 337 356 6 352 346 345 338 337 330 325 323 324
273 213 211 186 245 233 262 196 224 252 259 111 10 272 260 90 59 103 119 123 62 44 14 337 295 303 76 334 291 286 328 64 34 25 26 16 29 56 57 44 18 347 337 357 356 341 339 340 336 330 327 324 317 314
244 227 219 198 223 169 261 248 214 186 38 51 54 53 3 355 44 61 121 105 49 337 219 270 305 358 286 256 250 52 64 51 10 348 349 338 340 360 26 17 334 342 344 348 354 338 345 339 323 319 316 320 322 312
225 220 213 207 214 220 185 8 62 33 347 193 186 212 206 191 267 30 21 205 201 258 273 250 233 267 269 282 352 27 41 66 70 60 2 337 334 327 318 4 360 342 341 334 330 325 317 324 323 323 324 329 325 326
207 186 224 260 243 99 335 310 166 195 2 345 5 106 234 291 298 284 265 236 170 203 248 257 246 246 30 5 10 9 334 66 62 54 48 336 327 5 1 351 349 353 331 320 313 311 315 314 317 324 319 322 320 323
238 206 222 184 172 338 207 196 211 228 233 234 243 243 246 242 245 246 240 170 183 209 230 245 266 289 50 61 63 83 151 39 19 97 273 287 1 11 348 336 324 301 286 293 301 305 313 317 314 323 325 319 316 323
212 214 226 140 186 205 235 231 234 235 241 245 238 238 238 231 247 236 93 137 164 208 125 87 80 94 93 99 192 159 195 215 244 145 109 136 173 226 256 261 268 275 288 295 295 298 301 309 312 317 322 325 326 324